Home   Weather   Oranjestad   Past weeks
Flag for Aruba

Past Weather in Oranjestad, Aruba — Yesterday and Last 2 Weeks

Now
84 °F

Scattered clouds.


Feels Like: 92 °F
Forecast: 88 / 81 °F
Wind: 22 mph from Southeast

Location: Queen Beatrix Airport - Aruba

Current Time: Jul 19, 2019 at 8:27:49 am

Latest Report: Jul 19, 2019 at 8:00 am


Visibility: N/A

Pressure: 29.95 "Hg

Humidity: 74%

Dew Point: 75 °F

Location of OranjestadLocation

Past Weather in Oranjestad — Graph

°F

Oranjestad Temperature Yesterday

Maximum temperature yesterday: 88 °F (at 11:00 am)
Minimum temperature yesterday: 81 °F (at 12:00 am)
Average temperature yesterday: 84 °F

High & Low Weather Summary for the Past Weeks

 TemperatureHumidityPressure
High90 °F (Jul 6, 1:00 pm)89% (Jul 5, 1:00 am)30.01 "Hg (Jul 5, 1:00 am)
Low77 °F (Jul 15, 6:00 am)55% (Jul 12, 11:00 am)29.80 "Hg (Jul 12, 5:00 pm)
Average84 °F75%29.91 "Hg
* Reported Jul 4 7:00 am — Jul 19 7:00 am, Oranjestad. Weather by CustomWeather, © 2019

Note: Actual official high and low records may vary slightly from our data, if they occured in-between our weather recording intervals... More about our weather records

Advertising

Oranjestad Weather History for the Previous 24 Hours

Scroll right to see more
 ConditionsComfort  
Time TempWeatherWind HumidityBarometerVisibility
7:00 am
Fri, Jul 19
82 °FPassing clouds.20 mph79%29.92 "HgN/A
6:00 am81 °FPassing clouds.18 mph84%29.92 "HgN/A
5:00 am81 °FPassing clouds.21 mph84%29.92 "HgN/A
3:00 am82 °FPassing clouds.20 mph79%29.92 "HgN/A
2:00 am82 °FPassing clouds.26 mph79%29.92 "HgN/A
1:00 am82 °FPassing clouds.25 mph79%29.92 "HgN/A
12:00 am82 °FPassing clouds.26 mph79%29.92 "HgN/A
10:00 pm
Thu, Jul 18
82 °FPassing clouds.25 mph79%29.89 "HgN/A
9:00 pm82 °FPassing clouds.25 mph79%29.89 "HgN/A
8:00 pm82 °FPassing clouds.24 mph79%29.86 "HgN/A
7:00 pm82 °FPassing clouds.25 mph79%29.83 "HgN/A
6:00 pm84 °FPassing clouds.24 mph74%29.83 "HgN/A
5:00 pm86 °FPassing clouds.25 mph70%29.83 "HgN/A
4:00 pm88 °FPassing clouds.24 mph62%29.86 "HgN/A
3:00 pm88 °FPassing clouds.25 mph66%29.89 "HgN/A
2:00 pm88 °FScattered clouds.24 mph66%29.89 "HgN/A
1:00 pm88 °FScattered clouds.24 mph66%29.92 "HgN/A
12:00 pm88 °FScattered clouds.25 mph62%29.92 "HgN/A
11:00 am88 °FScattered clouds.26 mph62%29.92 "HgN/A
10:00 am86 °FScattered clouds.26 mph66%29.95 "HgN/A
9:00 am86 °FPassing clouds.21 mph66%29.95 "HgN/A
8:00 am84 °FPassing clouds.23 mph70%29.92 "HgN/A
Weather by CustomWeather, © 2019

See weather overview